Location: Zagreb
(45.8000°N, 16.0000°E)
Time: 13:56:48
(UTC+02:00)

Vanguard 3 - Visible Passes

Search period start: 19 July 2024 00:00
Search period end: 29 July 2024 00:00
Orbit: 508 x 3230 km, 33.4° (Epoch: 18 July)

Date Brightness Start Highest point End Pass type
(mag) Time Alt. Az. Time Alt. Az. Time Alt. Az.
19 Jul 10.0 00:30:30 29° SSE 00:33:23 31° SE 00:48:27 10° E visible
19 Jul 10.1 02:34:36 20° SW 02:46:35 51° SSE 03:05:04 10° E visible
19 Jul 10.2 04:43:53 10° WSW 05:01:34 54° S 05:19:06 10° ESE visible
19 Jul 10.4 23:15:36 19° SE 23:15:36 19° SE 23:24:48 10° E visible
20 Jul 9.9 01:19:42 31° SSW 01:26:20 43° SSE 01:43:43 10° E visible
20 Jul 10.1 03:24:19 10° WSW 03:40:35 55° S 03:59:10 10° ESE visible
21 Jul 9.9 00:04:44 30° SSE 00:06:58 31° SE 00:21:28 10° E visible
21 Jul 9.9 02:08:49 21° SW 02:19:51 51° SSE 02:38:21 10° E visible
21 Jul 10.2 04:17:48 10° WSW 04:34:42 54° S 04:52:49 10° ESE visible
21 Jul 10.3 22:49:39 18° SE 22:49:39 18° SE 22:57:46 10° E visible
22 Jul 9.8 00:53:44 31° SSW 00:59:48 42° SSE 01:16:45 10° E visible
22 Jul 10.0 02:58:32 10° WSW 03:13:45 55° S 03:32:34 10° ESE visible
22 Jul 9.7 23:38:27 29° SSE 23:40:39 30° SE 23:54:22 10° E visible
23 Jul 9.8 01:42:29 19° SW 01:53:12 51° SSE 02:11:27 10° E visible
23 Jul 10.1 03:51:52 10° W 04:07:48 53° S 04:26:17 10° ESE visible
23 Jul 10.0 22:22:46 18° SE 22:22:46 18° SE 22:30:42 10° E visible
24 Jul 9.7 00:26:45 26° SSW 00:33:23 42° SSE 00:49:38 10° E visible
24 Jul 9.9 02:32:53 10° WSW 02:47:00 54° S 03:05:44 10° ESE visible
24 Jul 10.3 04:45:36 10° W 05:01:43 46° SSW 05:19:16 10° SE visible
24 Jul 9.7 23:05:49 10° SSW 23:14:27 29° SE 23:27:11 10° E visible
25 Jul 9.6 01:14:39 10° WSW 01:26:40 50° SSE 01:44:22 10° E visible
25 Jul 10.0 03:26:06 10° W 03:40:57 51° S 03:59:29 10° ESE visible
25 Jul 9.8 21:50:51 10° SSE 21:56:23 17° SE 22:03:35 10° E visible
25 Jul 9.5 23:57:11 10° SW 00:07:05 41° SSE 00:22:24 10° E visible
26 Jul 9.7 02:07:21 10° WSW 02:20:20 53° S 02:38:41 10° ESE visible
26 Jul 10.2 04:19:41 10° W 04:34:49 44° SSW 04:52:29 10° SE visible
26 Jul 9.5 22:40:38 10° SSW 22:48:22 28° SE 22:59:58 10° E visible
27 Jul 9.5 00:49:19 10° WSW 01:00:15 49° SSE 01:17:08 10° ESE visible
27 Jul 9.9 03:00:27 10° W 03:14:11 50° S 03:32:28 10° SE visible
27 Jul 9.7 21:25:47 10° SSE 21:30:29 15° SE 21:36:30 10° ESE visible
27 Jul 9.3 23:32:00 10° SW 23:40:54 40° SSE 23:55:07 10° E visible
28 Jul 9.6 01:41:56 10° WSW 01:53:47 51° S 02:11:28 10° ESE visible
28 Jul 10.1 03:53:55 10° W 04:07:57 42° SSW 04:25:26 10° SE visible
28 Jul 9.3 22:15:32 10° SSW 22:22:25 27° SE 22:32:47 10° E visible
